{"data":{"norad_id":65045,"intl_designator":"2025-162C","name":"HULIANWANG DIGUI-42","alt_names":[],"object_type":"PAYLOAD","status":"ACTIVE","operator":null,"country":"PRC","launch_date":"2025-07-30","launch_site_code":"WSC","launch_vehicle":null,"mission":null,"orbit_class":"UNKNOWN","rcs_meters":null,"size_class":null,"mass_kg":null,"dimensions":null,"purposes":[],"wikipedia_slug":null,"has_3d_model":false,"image_url":null,"decayed_at":null,"tle_current":{"epoch":"2026-05-25T01:39:46.516896Z","epoch_age_seconds":65100,"freshness":"FRESH","line1":"1 65045U 25162C   26145.06928839 -.00000071  00000+0  11415-3 0  9992","line2":"2 65045  49.9986 348.6544 0000487  41.7040 318.3869 13.29324250 40289","mean_motion":13.2932425,"eccentricity":4.87e-5,"inclination_deg":49.9986,"raan_deg":348.6544,"arg_perigee_deg":41.704,"mean_anomaly_deg":318.3869,"bstar":0.00011415,"rev_number":4028,"period_min":108.32571511428,"perigee_km":1148.9465914059,"apogee_km":1149.6797650533,"semimajor_km":7527.4501782296,"source":"CELESTRAK","updated_at":"2026-05-25T13:38:05.087250Z"}}}